Location: CCZU
(31.6840°N, 119.9550°E)
Time: 11:28:28
(UTC+08:00)

Hubble Space Telescope - Pass Details

Date: 25 September 2022
Orbit: 530 x 534 km, 28.5° (Epoch: 28 November)

Event Time Altitude Azimuth Distance (km) Brightness Sun altitude
Rises 18:35:11 0° 238° (WSW) 2,647 5.3 -9.7°
Reaches altitude 10° 18:37:36 10° 228° (SW) 1,759 4.0 -10.2°
Maximum altitude 18:41:14 32° 164° (SSE) 921 1.8 -11.0°
Enters shadow 18:43:49 16° 110° (ESE) 1,408 2.3 -11.5°
